Terminal Aerodrome Forecast
Issued by NWS Sioux Falls, SD

Home | Current Version | Previous Version | Text Only | Print | Product List | Glossary On
Versions: 1 2 3 4 5 6 7 8 9 10 11 12 13 14 15 16
000
FTUS43 KFSD 232200 AAA
TAFSUX
TAF AMD
KSUX 232235Z 2323/2418 15025G34KT P6SM OVC120
      TEMPO 2401/2402 6SM -TSRA BKN050CB
     FM240200 14014G21KT P6SM -TSRA OVC030CB
     FM240500 08009KT 6SM -TSRA OVC030CB
     FM240900 32010KT P6SM BKN060
     FM241500 33015G22KT P6SM BKN080=

USA.gov is the U.S. government's official web portal to all federal, state and local government web resources and services.